IBE07MC LEMD-EGLL

Flight info

Callsign IBE07MC
Flight time N/A
Altitude 34000
Route SIE N858 DGO N867 NENEM DCT DIDIG UP87 ROXOG
Aircraft A346/H-SDE2E3FGHIJ3J4J5M1RWXY/LB1D1

Departure

Time N/A
Airport Adolfo Suárez Madrid–Barajas Airport (LEMD)

Arrival

Time 2026-05-07 11:02
Airport London Heathrow Airport (EGLL)
Time Latitude Longitude Altitude Speed Heading
2026-05-07 09:48 43.80947 -3.10853 34005 ft 486 kts 350°
2026-05-07 09:48 43.87492 -3.11965 33998 ft 486 kts 350°
2026-05-07 09:49 43.94025 -3.13090 33997 ft 486 kts 350°
2026-05-07 09:49 44.00611 -3.13769 34006 ft 488 kts 357°
2026-05-07 09:50 44.07395 -3.13167 34002 ft 490 kts
2026-05-07 09:50 44.14008 -3.11233 34005 ft 491 kts 14°
2026-05-07 09:51 44.20499 -3.08432 34010 ft 490 kts 16°
2026-05-07 09:51 44.26949 -3.05559 34012 ft 489 kts 16°
2026-05-07 09:52 44.33378 -3.02716 34008 ft 489 kts 16°
2026-05-07 09:52 44.39743 -2.99917 34022 ft 489 kts 16°
2026-05-07 09:53 44.46102 -2.97120 34020 ft 488 kts 16°
2026-05-07 09:53 44.52512 -2.94294 34017 ft 488 kts 16°
2026-05-07 09:54 44.58895 -2.91474 34023 ft 488 kts 16°
2026-05-07 09:54 44.65255 -2.88659 34022 ft 486 kts 16°
2026-05-07 09:55 44.71523 -2.85876 34025 ft 486 kts 16°
2026-05-07 09:55 44.77912 -2.83033 34023 ft 486 kts 16°
2026-05-07 09:56 44.84290 -2.80188 34029 ft 486 kts 16°
2026-05-07 09:56 44.91126 -2.77133 34029 ft 486 kts 16°
2026-05-07 09:57 45.03209 -2.71714 34029 ft 485 kts 17°
2026-05-07 09:58 45.09605 -2.68835 34031 ft 485 kts 17°
2026-05-07 09:58 45.15933 -2.65976 34026 ft 485 kts 16°
2026-05-07 09:59 45.21231 -2.63585 34036 ft 483 kts 17°
2026-05-07 10:00 45.35149 -2.57270 34032 ft 483 kts 17°
2026-05-07 10:00 45.40361 -2.54898 34033 ft 482 kts 17°
2026-05-07 10:01 45.46716 -2.51998 34039 ft 482 kts 17°
2026-05-07 10:01 45.53030 -2.49110 34042 ft 482 kts 17°
2026-05-07 10:02 45.60014 -2.45908 34044 ft 481 kts 17°
2026-05-07 10:02 45.66354 -2.42993 34042 ft 481 kts 17°
2026-05-07 10:03 45.72609 -2.40111 34043 ft 481 kts 17°
2026-05-07 10:03 45.78961 -2.37177 34045 ft 480 kts 17°
2026-05-07 10:04 45.85279 -2.34250 34042 ft 480 kts 17°
2026-05-07 10:04 45.91607 -2.31314 34045 ft 480 kts 17°
2026-05-07 10:05 45.97906 -2.28385 34050 ft 479 kts 17°
2026-05-07 10:05 46.04207 -2.25574 34046 ft 478 kts 13°
2026-05-07 10:06 46.10665 -2.23600 34047 ft 477 kts
2026-05-07 10:06 46.17091 -2.22049 34051 ft 476 kts
2026-05-07 10:07 46.23554 -2.20499 34049 ft 476 kts
2026-05-07 10:07 46.30042 -2.18920 34048 ft 476 kts
2026-05-07 10:08 46.36518 -2.17335 34052 ft 475 kts
2026-05-07 10:08 46.42991 -2.15743 34048 ft 475 kts
2026-05-07 10:09 46.49364 -2.14171 34045 ft 475 kts
2026-05-07 10:09 46.55781 -2.12585 34054 ft 475 kts
2026-05-07 10:10 46.62242 -2.10986 34045 ft 474 kts
2026-05-07 10:10 46.68702 -2.09380 34045 ft 474 kts
2026-05-07 10:11 46.75203 -2.07761 34040 ft 474 kts
2026-05-07 10:11 46.81696 -2.06140 34038 ft 474 kts
2026-05-07 10:12 46.88176 -2.04518 34037 ft 474 kts
2026-05-07 10:12 46.94650 -2.02891 34034 ft 473 kts
2026-05-07 10:13 47.01094 -2.01274 34035 ft 472 kts
2026-05-07 10:13 47.07548 -1.99675 34034 ft 472 kts
2026-05-07 10:14 47.13957 -1.98090 34033 ft 472 kts
2026-05-07 10:14 47.20460 -1.96476 34036 ft 471 kts
2026-05-07 10:15 47.26914 -1.94867 34032 ft 471 kts
2026-05-07 10:15 47.33396 -1.93617 34033 ft 470 kts
2026-05-07 10:16 47.39853 -1.93418 34038 ft 469 kts 356°
2026-05-07 10:16 47.46337 -1.94038 34035 ft 469 kts 354°
2026-05-07 10:17 47.52821 -1.94767 34036 ft 469 kts 354°
2026-05-07 10:17 47.59328 -1.95055 34039 ft 469 kts
2026-05-07 10:18 47.65807 -1.94124 34040 ft 470 kts
2026-05-07 10:18 47.72177 -1.91939 34042 ft 471 kts 16°
2026-05-07 10:19 47.78360 -1.88861 34044 ft 471 kts 18°
2026-05-07 10:19 47.84531 -1.85659 34051 ft 471 kts 18°
2026-05-07 10:20 47.90701 -1.82487 34057 ft 471 kts 18°
2026-05-07 10:20 47.96877 -1.79318 34057 ft 471 kts 18°
2026-05-07 10:21 48.03090 -1.76571 34061 ft 470 kts 12°
2026-05-07 10:21 48.09424 -1.74862 34058 ft 469 kts
2026-05-07 10:22 48.15873 -1.74217 34065 ft 469 kts 359°
2026-05-07 10:22 48.22292 -1.74267 34068 ft 468 kts 358°
2026-05-07 10:23 48.28712 -1.74382 34055 ft 468 kts 358°
2026-05-07 10:23 48.35175 -1.74478 34052 ft 468 kts 358°
2026-05-07 10:24 48.41667 -1.74563 34058 ft 468 kts 358°
2026-05-07 10:24 48.48169 -1.74643 34056 ft 468 kts 358°
2026-05-07 10:25 48.54668 -1.74725 34052 ft 467 kts 358°
2026-05-07 10:25 48.60841 -1.74802 34055 ft 467 kts 358°
2026-05-07 10:26 48.67344 -1.74882 34066 ft 467 kts 358°
2026-05-07 10:26 48.73807 -1.74963 34062 ft 467 kts 358°
2026-05-07 10:27 48.80237 -1.75044 34062 ft 467 kts 358°
2026-05-07 10:27 48.85607 -1.75111 34066 ft 467 kts 358°
2026-05-07 10:28 48.93153 -1.75160 34061 ft 467 kts 359°
2026-05-07 10:28 48.98533 -1.74955 34064 ft 467 kts
2026-05-07 10:29 49.04967 -1.74672 34064 ft 467 kts 360°
2026-05-07 10:29 49.11416 -1.74408 34070 ft 467 kts 360°
2026-05-07 10:30 49.21069 -1.74034 34067 ft 467 kts 360°
2026-05-07 10:30 49.27467 -1.73789 34064 ft 467 kts 360°
2026-05-07 10:31 49.33906 -1.73540 34062 ft 466 kts 360°
2026-05-07 10:31 49.40343 -1.73292 34060 ft 466 kts 360°
2026-05-07 10:32 49.46787 -1.73043 34057 ft 466 kts 360°
2026-05-07 10:32 49.53234 -1.72791 34066 ft 466 kts 359°
2026-05-07 10:33 49.59702 -1.72539 34049 ft 466 kts 360°
2026-05-07 10:33 49.66148 -1.72056 34061 ft 466 kts
2026-05-07 10:34 49.72580 -1.71477 33907 ft 468 kts
2026-05-07 10:34 49.75832 -1.71191 33170 ft 471 kts
2026-05-07 10:34 49.79101 -1.70910 32499 ft 471 kts
2026-05-07 10:35 49.82368 -1.70633 31869 ft 470 kts
2026-05-07 10:35 49.86123 -1.70315 31152 ft 470 kts
2026-05-07 10:35 49.89384 -1.70039 30530 ft 469 kts
2026-05-07 10:36 49.95458 -1.69518 29240 ft 469 kts
2026-05-07 10:36 49.98710 -1.68979 28574 ft 469 kts
2026-05-07 10:36 50.01915 -1.68053 27910 ft 470 kts 11°
2026-05-07 10:36 50.05072 -1.66746 27236 ft 470 kts 14°
2026-05-07 10:37 50.11194 -1.63781 26323 ft 464 kts 16°
2026-05-07 10:37 50.14256 -1.62268 25891 ft 460 kts 16°
2026-05-07 10:37 50.17299 -1.60772 25460 ft 457 kts 16°
2026-05-07 10:38 50.20319 -1.59293 25028 ft 453 kts 16°
2026-05-07 10:38 50.23316 -1.57830 24585 ft 450 kts 16°
2026-05-07 10:38 50.26290 -1.56380 24144 ft 446 kts 16°
2026-05-07 10:38 50.29241 -1.54941 23711 ft 443 kts 16°
2026-05-07 10:39 50.32172 -1.53509 23210 ft 439 kts 16°
2026-05-07 10:39 50.35077 -1.52087 22743 ft 434 kts 16°
2026-05-07 10:39 50.37956 -1.50676 22298 ft 429 kts 16°
2026-05-07 10:39 50.40795 -1.49281 21874 ft 425 kts 16°
2026-05-07 10:40 50.43606 -1.47900 21447 ft 421 kts 16°
2026-05-07 10:40 50.46387 -1.46531 21014 ft 417 kts 16°
2026-05-07 10:40 50.49143 -1.45172 20576 ft 414 kts 16°
2026-05-07 10:40 50.51858 -1.43743 20167 ft 411 kts 19°
2026-05-07 10:41 50.54502 -1.42055 19747 ft 409 kts 23°
2026-05-07 10:41 50.57051 -1.40106 19327 ft 406 kts 27°
2026-05-07 10:41 50.59538 -1.38003 18901 ft 404 kts 28°
2026-05-07 10:41 50.61992 -1.35879 18481 ft 401 kts 28°
2026-05-07 10:42 50.64433 -1.33762 18032 ft 399 kts 28°
2026-05-07 10:42 50.66858 -1.31664 17582 ft 396 kts 28°
2026-05-07 10:42 50.69269 -1.29580 17172 ft 393 kts 28°
2026-05-07 10:42 50.71673 -1.27503 16739 ft 390 kts 28°
2026-05-07 10:43 50.74043 -1.25456 16324 ft 387 kts 28°
2026-05-07 10:43 50.76387 -1.23362 15916 ft 385 kts 31°
2026-05-07 10:43 50.78656 -1.21106 15492 ft 383 kts 33°
2026-05-07 10:43 50.80883 -1.18817 15087 ft 381 kts 33°
2026-05-07 10:44 50.83098 -1.16521 14683 ft 379 kts 33°
2026-05-07 10:44 50.85296 -1.14243 14266 ft 377 kts 33°
2026-05-07 10:44 50.86009 -1.13505 14124 ft 376 kts 33°
2026-05-07 10:45 50.95999 -1.03145 13283 ft 323 kts 33°
2026-05-07 10:45 50.97844 -1.01228 13184 ft 311 kts 33°
2026-05-07 10:46 50.99602 -0.99323 13087 ft 299 kts 38°
2026-05-07 10:46 51.01160 -0.97230 12982 ft 295 kts 44°
2026-05-07 10:46 51.02601 -0.94837 12625 ft 301 kts 49°
2026-05-07 10:46 51.03995 -0.92353 12317 ft 301 kts 49°
2026-05-07 10:47 51.05357 -0.89901 12015 ft 299 kts 49°
2026-05-07 10:47 51.06751 -0.87399 11743 ft 297 kts 49°
2026-05-07 10:47 51.08134 -0.84923 11455 ft 296 kts 49°
2026-05-07 10:47 51.09498 -0.82479 11168 ft 294 kts 49°
2026-05-07 10:48 51.10838 -0.80084 10888 ft 293 kts 49°
2026-05-07 10:48 51.12210 -0.77631 10590 ft 292 kts 49°
2026-05-07 10:48 51.13546 -0.75240 10348 ft 290 kts 49°
2026-05-07 10:48 51.14882 -0.72851 10096 ft 285 kts 49°
2026-05-07 10:49 51.16185 -0.70512 9863 ft 280 kts 49°
2026-05-07 10:49 51.17464 -0.68217 9628 ft 274 kts 49°
2026-05-07 10:49 51.18720 -0.65963 9338 ft 270 kts 49°
2026-05-07 10:49 51.19972 -0.63709 9055 ft 265 kts 49°
2026-05-07 10:50 51.21191 -0.61515 8774 ft 262 kts 49°
2026-05-07 10:50 51.22408 -0.59324 8514 ft 263 kts 49°
2026-05-07 10:50 51.23607 -0.57159 8291 ft 257 kts 49°
2026-05-07 10:50 51.24396 -0.55729 8166 ft 252 kts 49°
2026-05-07 10:51 51.25542 -0.53644 7900 ft 248 kts 49°
2026-05-07 10:51 51.26673 -0.51576 7590 ft 247 kts 49°
2026-05-07 10:51 51.27915 -0.49707 7255 ft 246 kts 28°
2026-05-07 10:51 51.29508 -0.49015 6993 ft 240 kts 355°
2026-05-07 10:52 51.31080 -0.49796 7004 ft 239 kts 323°
2026-05-07 10:52 51.32161 -0.51792 6990 ft 237 kts 291°
2026-05-07 10:52 51.32514 -0.54323 7028 ft 236 kts 275°
2026-05-07 10:52 51.32611 -0.56933 6969 ft 232 kts 271°
2026-05-07 10:53 51.32657 -0.59532 6621 ft 233 kts 271°
2026-05-07 10:53 51.32692 -0.62132 6307 ft 233 kts 271°
2026-05-07 10:53 51.32723 -0.64719 6033 ft 231 kts 271°
2026-05-07 10:53 51.32750 -0.67278 5757 ft 229 kts 271°
2026-05-07 10:54 51.32777 -0.69777 5613 ft 221 kts 271°
2026-05-07 10:54 51.32801 -0.72202 5460 ft 214 kts 271°
2026-05-07 10:54 51.32953 -0.74519 5314 ft 206 kts 290°
2026-05-07 10:54 51.33808 -0.76248 5142 ft 199 kts 326°
2026-05-07 10:55 51.35047 -0.77128 4988 ft 192 kts 338°
2026-05-07 10:55 51.36301 -0.77793 4742 ft 188 kts 340°
2026-05-07 10:55 51.37544 -0.78423 4447 ft 187 kts 341°
2026-05-07 10:55 51.38786 -0.79052 4149 ft 187 kts 341°
2026-05-07 10:56 51.40025 -0.79686 3853 ft 187 kts 341°
2026-05-07 10:56 51.41257 -0.80319 3562 ft 187 kts 341°
2026-05-07 10:56 51.42491 -0.80957 3272 ft 187 kts 340°
2026-05-07 10:56 51.43729 -0.81588 3005 ft 186 kts 346°
2026-05-07 10:57 51.45004 -0.81438 2991 ft 189 kts 26°
2026-05-07 10:57 51.46020 -0.80111 3014 ft 189 kts 46°
2026-05-07 10:57 51.46887 -0.78524 3001 ft 189 kts 50°
2026-05-07 10:58 51.47641 -0.74702 2982 ft 188 kts 86°
2026-05-07 10:58 51.47701 -0.72617 2980 ft 187 kts 89°
2026-05-07 10:58 51.47717 -0.70569 2838 ft 180 kts 90°
2026-05-07 10:58 51.47718 -0.68586 2585 ft 175 kts 91°
2026-05-07 10:59 51.47715 -0.66627 2361 ft 175 kts 91°
2026-05-07 10:59 51.47714 -0.64677 2120 ft 174 kts 90°
2026-05-07 10:59 51.47716 -0.62739 1885 ft 173 kts 90°
2026-05-07 10:59 51.47719 -0.60805 1644 ft 173 kts 90°
2026-05-07 11:00 51.47723 -0.58868 1396 ft 169 kts 90°
2026-05-07 11:00 51.47727 -0.57036 1154 ft 158 kts 90°
2026-05-07 11:00 51.47731 -0.55323 943 ft 152 kts 90°
2026-05-07 11:00 51.47735 -0.53610 752 ft 151 kts 90°
2026-05-07 11:01 51.47745 -0.51921 554 ft 151 kts 90°
2026-05-07 11:01 51.47749 -0.50244 356 ft 151 kts 90°
2026-05-07 11:01 51.47755 -0.48560 141 ft 150 kts 90°
2026-05-07 11:01 51.47756 -0.47019 99 ft 109 kts 90°
2026-05-07 11:02 51.47760 -0.45676 95 ft 30 kts 90°
2026-05-07 11:02 51.47728 -0.45493 97 ft 13 kts 142°
2026-05-07 11:02 51.47658 -0.45467 94 ft 7 kts 181°
2026-05-07 11:03 51.47623 -0.45467 94 ft 6 kts 180°
2026-05-07 11:03 51.47565 -0.45468 94 ft 8 kts 184°
2026-05-07 11:03 51.47521 -0.45504 98 ft 9 kts 231°
2026-05-07 11:03 51.47509 -0.45614 98 ft 12 kts 270°
2026-05-07 11:04 51.47514 -0.45766 97 ft 15 kts 276°
2026-05-07 11:04 51.47517 -0.45822 94 ft 15 kts 275°
2026-05-07 11:04 51.47517 -0.46079 94 ft 19 kts 270°
2026-05-07 11:04 51.47516 -0.46360 94 ft 19 kts 269°
2026-05-07 11:05 51.47515 -0.46569 94 ft 15 kts 270°
2026-05-07 11:05 51.47515 -0.46645 95 ft 10 kts 270°